When you browse on this site, cookies collect data to enhance your experience and personalize the content and advertising you see.
Visit our Privacy Policy to learn more. By continuing to use the site, you agree to this use of cookies and data.
  • In Schweiz
  • Länderverzeichnis
  • Für 7 Tage
  • Wassertemperatur
  • Wetterkarte
  • Widgets
  • user-avatar
    Anmelden

    Stündliche Wetter Megri

    Heute, 18 Oktober, Freitag

    Zeit Temperatur Niederschläge Wind Luftdruck Luftfeuchtigkeit
    00:00 +10°C° 0 mm 0 m/S 625 mmHg 54%
    01:00 +10°C° 0 mm 0 m/S 625 mmHg 53%
    02:00 +10°C° 0 mm 0 m/S 624 mmHg 51%
    03:00 +9°C° 0 mm 0 m/S 624 mmHg 51%
    04:00 +9°C° 0 mm 0 m/S 624 mmHg 51%
    05:00 +9°C° 0 mm 0 m/S 624 mmHg 50%
    06:00 +8°C° 0 mm 0 m/S 624 mmHg 50%
    07:00 +11°C° 0 mm 0 m/S 625 mmHg 42%
    08:00 +14°C° 0 mm 0 m/S 626 mmHg 35%
    09:00 +19°C° 0 mm 1 m/S 628 mmHg 28%
    10:00 +20°C° 0 mm 1 m/S 628 mmHg 26%
    11:00 +20°C° 0 mm 2 m/S 628 mmHg 23%
    12:00 +21°C° 0 mm 2 m/S 628 mmHg 21%
    13:00 +21°C° 0 mm 2 m/S 628 mmHg 21%
    14:00 +23°C° 0 mm 2 m/S 627 mmHg 20%
    15:00 +22°C° 0 mm 3 m/S 627 mmHg 20%
    16:00 +20°C° 0 mm 2 m/S 626 mmHg 25%
    17:00 +18°C° 0 mm 2 m/S 626 mmHg 30%
    18:00 +16°C° 0 mm 1 m/S 625 mmHg 35%
    19:00 +15°C° 0 mm 1 m/S 625 mmHg 38%
    20:00 +14°C° 0 mm 0 m/S 625 mmHg 41%
    21:00 +13°C° 0 mm 0 m/S 624 mmHg 43%
    22:00 +12°C° 0 mm 0 m/S 624 mmHg 45%
    23:00 +12°C° 0 mm 0 m/S 624 mmHg 47%

    Morgen, 19 Oktober, Samstag

    Zeit Temperatur Niederschläge Wind Luftdruck Luftfeuchtigkeit
    00:00 +12°C° 0 mm 0 m/S 624 mmHg 48%
    01:00 +11°C° 0 mm 0 m/S 624 mmHg 49%
    02:00 +11°C° 0 mm 0 m/S 623 mmHg 50%
    03:00 +11°C° 0 mm 0 m/S 623 mmHg 52%
    04:00 +10°C° 0 mm 0 m/S 623 mmHg 54%
    05:00 +10°C° 0 mm 0 m/S 623 mmHg 56%
    06:00 +9°C° 0 mm 0 m/S 623 mmHg 59%
    07:00 +12°C° 0 mm 0 m/S 624 mmHg 50%
    08:00 +15°C° 0 mm 0 m/S 626 mmHg 41%
    09:00 +17°C° 0 mm 0 m/S 627 mmHg 33%
    10:00 +20°C° 0 mm 1 m/S 627 mmHg 31%
    11:00 +21°C° 0 mm 1 m/S 627 mmHg 29%
    12:00 +21°C° 0 mm 2 m/S 627 mmHg 27%
    13:00 +21°C° 0 mm 2 m/S 627 mmHg 26%
    14:00 +21°C° 0 mm 2 m/S 627 mmHg 26%
    15:00 +21°C° 0 mm 2 m/S 626 mmHg 26%
    16:00 +19°C° 0 mm 2 m/S 626 mmHg 33%
    17:00 +19°C° 0 mm 1 m/S 625 mmHg 40%
    18:00 +16°C° 0 mm 1 m/S 625 mmHg 47%
    19:00 +15°C° 0 mm 1 m/S 625 mmHg 52%
    20:00 +14°C° 0 mm 1 m/S 625 mmHg 57%
    21:00 +14°C° 0 mm 2 m/S 625 mmHg 62%
    22:00 +13°C° 0 mm 2 m/S 625 mmHg 63%
    23:00 +13°C° 0 mm 2 m/S 625 mmHg 64%

    übermorgen, 20 Oktober, Sonntag

    Zeit Temperatur Niederschläge Wind Luftdruck Luftfeuchtigkeit
    00:00 +13°C° 0 mm 2 m/S 625 mmHg 65%
    01:00 +12°C° 0 mm 2 m/S 624 mmHg 67%
    02:00 +12°C° 0 mm 2 m/S 624 mmHg 70%
    03:00 +12°C° 0 mm 2 m/S 624 mmHg 72%
    04:00 +10°C° 0 mm 2 m/S 624 mmHg 73%
    05:00 +10°C° 0 mm 2 m/S 624 mmHg 74%
    06:00 +10°C° 0 mm 2 m/S 624 mmHg 76%
    07:00 +12°C° 0 mm 2 m/S 625 mmHg 68%
    08:00 +14°C° 0 mm 2 m/S 626 mmHg 60%
    09:00 +16°C° 0 mm 2 m/S 627 mmHg 53%
    10:00 +17°C° 0.2 mm 2 m/S 627 mmHg 48%
    11:00 +18°C° 0.2 mm 2 m/S 627 mmHg 43%
    12:00 +19°C° 0.2 mm 2 m/S 627 mmHg 39%
    13:00 +19°C° 0.6 mm 2 m/S 627 mmHg 40%
    14:00 +18°C° 0.6 mm 2 m/S 626 mmHg 42%
    15:00 +18°C° 0.6 mm 3 m/S 626 mmHg 44%
    16:00 +16°C° 0.5 mm 3 m/S 626 mmHg 53%
    17:00 +14°C° 0.5 mm 3 m/S 625 mmHg 61%
    18:00 +12°C° 0.5 mm 3 m/S 625 mmHg 70%
    19:00 +12°C° 0 mm 3 m/S 625 mmHg 72%
    20:00 +11°C° 0 mm 3 m/S 625 mmHg 74%
    21:00 +11°C° 0 mm 3 m/S 625 mmHg 76%
    22:00 +10°C° 0 mm 3 m/S 625 mmHg 77%
    23:00 +10°C° 0 mm 2 m/S 625 mmHg 77%

    21 Oktober, Montag

    Zeit Temperatur Niederschläge Wind Luftdruck Luftfeuchtigkeit
    00:00 +10°C° 0 mm 2 m/S 625 mmHg 78%
    01:00 +9°C° 0 mm 2 m/S 625 mmHg 77%
    02:00 +9°C° 0 mm 2 m/S 624 mmHg 77%
    03:00 +9°C° 0 mm 2 m/S 624 mmHg 76%
    04:00 +9°C° 0 mm 2 m/S 624 mmHg 77%
    05:00 +8°C° 0 mm 2 m/S 624 mmHg 77%
    06:00 +8°C° 0 mm 2 m/S 624 mmHg 77%
    07:00 +9°C° 0 mm 2 m/S 625 mmHg 70%
    08:00 +11°C° 0 mm 3 m/S 626 mmHg 62%
    09:00 +12°C° 0 mm 3 m/S 626 mmHg 54%
    10:00 +13°C° 0 mm 3 m/S 626 mmHg 50%
    11:00 +14°C° 0 mm 3 m/S 627 mmHg 46%
    12:00 +17°C° 0 mm 3 m/S 627 mmHg 42%
    13:00 +17°C° 0 mm 3 m/S 626 mmHg 41%
    14:00 +17°C° 0 mm 3 m/S 626 mmHg 40%
    15:00 +17°C° 0 mm 4 m/S 626 mmHg 39%
    16:00 +14°C° 0.1 mm 4 m/S 625 mmHg 42%
    17:00 +13°C° 0.1 mm 3 m/S 625 mmHg 45%
    18:00 +11°C° 0.1 mm 3 m/S 625 mmHg 48%
    19:00 +10°C° 0 mm 3 m/S 624 mmHg 50%
    20:00 +10°C° 0 mm 3 m/S 624 mmHg 52%
    21:00 +9°C° 0 mm 3 m/S 624 mmHg 54%
    22:00 +9°C° 0 mm 3 m/S 624 mmHg 56%
    23:00 +8°C° 0 mm 3 m/S 624 mmHg 58%

    22 Oktober, Dienstag

    Zeit Temperatur Niederschläge Wind Luftdruck Luftfeuchtigkeit
    00:00 +8°C° 0 mm 3 m/S 624 mmHg 59%
    01:00 +8°C° 0 mm 3 m/S 624 mmHg 60%
    02:00 +8°C° 0 mm 3 m/S 624 mmHg 61%
    03:00 +7°C° 0 mm 2 m/S 623 mmHg 62%
    04:00 +7°C° 0 mm 2 m/S 624 mmHg 62%
    05:00 +7°C° 0 mm 2 m/S 624 mmHg 63%
    06:00 +7°C° 0 mm 2 m/S 624 mmHg 63%
    07:00 +8°C° 0 mm 2 m/S 625 mmHg 57%
    08:00 +10°C° 0 mm 2 m/S 625 mmHg 51%
    09:00 +13°C° 0 mm 2 m/S 626 mmHg 45%
    10:00 +14°C° 0 mm 2 m/S 626 mmHg 43%
    11:00 +15°C° 0 mm 2 m/S 626 mmHg 40%
    12:00 +16°C° 0 mm 2 m/S 626 mmHg 38%
    13:00 +16°C° 0 mm 2 m/S 626 mmHg 37%
    14:00 +17°C° 0 mm 2 m/S 626 mmHg 37%
    15:00 +17°C° 0 mm 2 m/S 626 mmHg 36%
    16:00 +15°C° 0 mm 2 m/S 625 mmHg 39%
    17:00 +14°C° 0 mm 2 m/S 625 mmHg 42%
    18:00 +13°C° 0 mm 2 m/S 624 mmHg 44%
    19:00 +12°C° 0 mm 2 m/S 624 mmHg 46%
    20:00 +12°C° 0 mm 2 m/S 624 mmHg 48%
    21:00 +10°C° 0 mm 2 m/S 624 mmHg 49%
    22:00 +10°C° 0 mm 2 m/S 624 mmHg 51%
    23:00 +10°C° 0 mm 2 m/S 624 mmHg 52%

    23 Oktober, Mittwoch

    Zeit Temperatur Niederschläge Wind Luftdruck Luftfeuchtigkeit
    00:00 +9°C° 0 mm 2 m/S 624 mmHg 54%
    01:00 +9°C° 0.1 mm 2 m/S 624 mmHg 56%
    02:00 +10°C° 0.1 mm 1 m/S 624 mmHg 58%
    03:00 +10°C° 0.1 mm 1 m/S 623 mmHg 59%
    04:00 +10°C° 0.1 mm 1 m/S 623 mmHg 62%
    05:00 +9°C° 0.1 mm 1 m/S 623 mmHg 64%
    06:00 +9°C° 0.1 mm 1 m/S 623 mmHg 66%
    07:00 +11°C° 0.1 mm 1 m/S 624 mmHg 62%
    08:00 +12°C° 0.1 mm 1 m/S 625 mmHg 57%
    09:00 +14°C° 0.1 mm 1 m/S 625 mmHg 52%
    10:00 +15°C° 0.2 mm 1 m/S 625 mmHg 50%
    11:00 +16°C° 0.2 mm 1 m/S 626 mmHg 47%
    12:00 +18°C° 0.2 mm 1 m/S 626 mmHg 44%
    13:00 +18°C° 0.2 mm 1 m/S 626 mmHg 43%
    14:00 +19°C° 0.2 mm 1 m/S 625 mmHg 42%
    15:00 +19°C° 0.2 mm 1 m/S 625 mmHg 41%
    16:00 +18°C° 0.1 mm 1 m/S 625 mmHg 45%
    17:00 +15°C° 0.1 mm 1 m/S 625 mmHg 50%
    18:00 +14°C° 0.1 mm 1 m/S 624 mmHg 55%
    19:00 +13°C° 0 mm 2 m/S 624 mmHg 58%
    20:00 +13°C° 0 mm 2 m/S 624 mmHg 60%
    21:00 +12°C° 0 mm 2 m/S 624 mmHg 63%
    22:00 +12°C° 0 mm 2 m/S 624 mmHg 64%
    23:00 +10°C° 0 mm 2 m/S 624 mmHg 66%
    Mehr zeigen